Find Starlink 4336

NORAD ID: 53051 Int'l Des: 2022-077 Owner: SPXS Country: US Constellation: starlink operational
LEOCIRCULARRETROGRADESSO

リアルタイム位置

3D地球を読み込み中...

Starlink 4336について

説明を読み込み中...

次回通過

Passes for default location (London). Set your location on the main map for personalized predictions.

高度履歴

Loading altitude history...

軌道要素

1 53051U 22077J 26124.46126356 -.00000648 00000-0 -40790-4 0 9994
2 53051 97.5375 304.9414 0001479 88.9424 271.1973 15.05653758209290
Epoch: May 4, 2026 • Age: 10 hours

現在のステータス

高度 551.7 km
速度 7.59 km/s
衛星直下点 9.25°N, 57.12°W
打ち上げ日 Jul 11, 2022
運用期間 3.8 years
タイプ internet

技術仕様

分類 Payload
質量 297.00 kg
乾燥質量 275.00 kg
総質量 297.00 kg
長さ 0.20 m
直径 2.80 m
スパン 9.00 m
形状 Box + pan
製造者 SPXS
バスタイプ Starlink
フェーズステータス In Orbit
所有者/国 SPXS/US

Most Searched